Home   Weather   Atlantic City   Past weeks

Flag for USA Past Weather in Atlantic City, New Jersey, USA — Yesterday and Last 2 Weeks

Now
23 °F

Clear.


Feels Like: 23 °F
Forecast: 30 / 42 °F
Wind: No wind

Location: Atlantic City International Airport

Current Time: Jan 16, 2017 at 6:01:50 am

Latest Report: Jan 16, 2017 at 4:54 am


Visibility: 10 mi

Pressure: 30.44 "Hg

Humidity: 78%

Dew Point: 17 °F

Location of Atlantic CityLocation

Past Weather in Atlantic City — Graph

°F

Atlantic City Temperature Yesterday

Maximum temperature yesterday: 43 °F (at 1:54 pm)
Minimum temperature yesterday: 29 °F (at 9:54 pm)
Average temperature yesterday: 35 °F

High & Low Weather Summary for the Past Weeks

 TemperatureHumidityPressure
High67 °F (Jan 12, 2:54 pm)97% (Jan 4, 6:54 am)30.81 "Hg (Jan 4, 6:54 am)
Low3 °F (Jan 9, 4:54 am)34% (Jan 4, 10:54 pm)29.48 "Hg (Jan 4, 3:54 am)
Average37 °F72%30.21 "Hg
* Reported Jan 1 4:54 am — Jan 16 4:54 am, Atlantic City, Weather by CustomWeather, © 2017

Note: Actual official high and low records may vary slightly from our data, if they occured in-between our weather recording intervals... More about our weather records

Advertising

Atlantic City Weather History for the Previous 24 Hours

Scroll right to see more
 ConditionsComfort  
Time TempWeatherWind HumidityBarometerVisibility
4:54 am
Mon, Jan 16
23 °FClear.No wind78%30.44 "Hg10 mi
3:54 am24 °FClear.3 mph77%30.45 "Hg10 mi
2:54 am25 °FClear.No wind78%30.45 "Hg10 mi
1:54 am26 °FClear.5 mph74%30.44 "Hg10 mi
12:54 am27 °FClear.5 mph75%30.42 "Hg10 mi
11:54 pm
Sun, Jan 15
29 °FClear.No wind72%30.43 "Hg10 mi
10:54 pm30 °FClear.No wind72%30.42 "Hg10 mi
9:54 pm29 °FClear.3 mph75%30.42 "Hg10 mi
8:54 pm30 °FClear.3 mph69%30.41 "Hg10 mi
7:54 pm32 °FClear.No wind64%30.40 "Hg10 mi
6:54 pm32 °FClear.No wind66%30.39 "Hg10 mi
5:54 pm34 °FClear.6 mph61%30.37 "Hg10 mi
4:54 pm37 °FSunny.6 mph57%30.36 "Hg10 mi
3:54 pm42 °FSunny.8 mph47%30.34 "Hg10 mi
2:54 pm43 °FSunny.7 mph45%30.34 "Hg10 mi
1:54 pm43 °FSunny.12 mph45%30.33 "Hg10 mi
12:54 pm42 °FSunny.7 mph51%30.34 "Hg10 mi
11:54 am40 °FSunny.8 mph58%30.36 "Hg10 mi
10:54 am38 °FSunny.12 mph63%30.38 "Hg10 mi
9:54 am35 °FSunny.14 mph70%30.39 "Hg10 mi
8:54 am34 °FSunny.12 mph79%30.37 "Hg7 mi
7:54 am31 °FIce fog.8 mph89%30.35 "Hg4 mi
6:54 am32 °FIce fog.8 mph88%30.33 "Hg6 mi
Weather by CustomWeather, © 2017

See weather overviewHow to use our weather pages